Reflectivity
-20 -20 -20 -20 -20 -20 -20 -20 -20 -20 -20 -20 -20 -20 -20 -20 -20 -20 -20 -20 -20 -20 -20 -20 -20 -20 -20 4 6 3 -9 -0 10 12 2 18 29 34 24 20 11 4 8 29
-20 -20 -10 -20 -20 -20 -20 -20 -20 -20 -20 -20 -20 -20 -20 -20 -20 -20 -20 -20 -20 -20 -20 -20 -20 -20 -5 2 -2 4 -19 -7 -13 5 -19 -7 18 31 31 20 13 4 13 21
-20 -20 -12 -20 -20 -20 -20 -20 -20 -20 -20 -20 -20 -20 -20 -20 -20 -20 -20 -20 -20 -20 -20 -20 -20 -20 -18 -12 -11 -14 -20 -7 -20 -20 -16 -20 -6 5 14 26 18 8 22 17
-20 -20 -20 -20 -20 -20 -20 -20 -20 -20 -20 -20 -20 -20 -20 -20 -20 -20 -20 -20 -20 -20 -20 -20 -20 -20 -20 -20 -20 -20 -20 4 -20 -20 -20 -20 -3 -2 -10 3 -9 26 20 22
-20 -19 -12 -13 -20 -20 -20 -20 -20 -20 -20 -20 -20 -20 -20 -20 -20 -20 -20 -20 -20 -20 -20 -20 -20 -20 -20 -20 -20 -20 -20 -20 -20 -20 -20 -20 4 22 30 32 30 24 24 12
14 -19 -17 -20 -20 -20 -20 -20 -20 -20 -20 -20 -20 -20 -19 -20 -20 -20 -20 -20 -20 -20 -20 -20 -20 -20 -20 -20 -15 -20 -20 -20 -20 -20 -20 -20 -20 -9 -10 -16 -10 -14 -12 -11
10 -11 -20 -2 -3 4 -20 -20 -20 -20 -20 -20 -20 -20 -14 -20 -20 -20 -20 -20 -20 -20 -20 -20 -20 -20 -20 -20 -20 -20 -20 -20 -20 -20 -20 -20 -20 -20 -20 -20 -20 -20 -20 -20
-4 7 3 -2 5 -6 6 6 -19 -20 -20 -20 -20 -20 -20 -20 -20 -20 -20 -20 -20 -20 -20 -20 -20 -20 -20 -20 -20 -20 -20 -20 -20 -20 -20 -20 -20 -20 -20 -20 -20 -20 -20 -20
-20 -20 5 7 -3 7 -0 -19 -15 -20 -20 -20 -20 -20 -20 -20 -20 -20 -20 -20 -20 -20 -20 -20 -20 -20 -20 -20 -20 -20 -20 -20 -20 -20 -20 -20 -20 -20 -20 -20 -20 -20 -20 -20
-20 -20 -14 1 12 10 -19 -20 -20 -20 -20 -20 -20 -20 -20 -20 -20 -20 -20 -20 -20 -20 -20 -20 -20 -20 -20 -20 -20 -20 -20 -20 -20 -20 -20 -20 -20 -20 -20 -20 -20 -20 -20 -20
-20 -20 -19 -13 -17 2 2 -20 -20 -20 -20 -20 -20 -20 -20 -20 -20 -20 -20 -20 -20 -20 -20 -20 -20 -20 -20 -20 -20 -20 -20 2 -20 -20 -20 -20 -20 -20 -20 -20 -18 -18 -20 -20
-20 -20 -20 -20 -15 -20 -20 -20 -20 -20 -20 -20 -20 -20 -20 -20 -20 -20 -20 -20 -20 -20 -20 -20 -20 -20 -20 -20 -20 -20 -20 -20 -20 31 4 -10 -20 -20 -20 0 -19 -20 -20 -20
-20 -20 -20 -16 -13 -20 -20 -20 -20 -20 -20 -20 -20 -20 -20 -20 -15 -20 -20 -20 -20 -20 -20 -20 -20 -20 -20 -20 -20 -20 -20 -20 -20 -20 -20 13 -20 -20 -20 -20 -20 -20 -20 -20
-20 -8 -20 -20 -20 -20 -20 -20 -20 -20 -20 -20 -20 -20 -20 -20 -17 -20 -20 -20 -20 -20 -20 -20 -20 -20 -20 -20 -20 -20 -20 -20 -20 -20 -20 -20 -20 -5 -20 -20 -20 -20 -20 -20
-20 -20 -17 -17 -20 -20 -20 -20 -20 -20 -20 -20 -20 -20 -20 -20 -20 -13 -20 -20 -20 -20 -20 -20 -20 -20 -20 -20 -20 -20 -20 -20 -20 -20 -20 -20 -20 -20 -20 -20 -20 -20 -20 -20
-20 -20 -20 -20 -20 -20 -20 -20 -20 -20 -20 -20 -20 -20 -20 -20 -20 -20 3 -20 -20 -20 -20 -20 -20 -20 -20 -20 -20 -20 -20 -20 -20 -20 -20 -20 -20 -20 -20 -20 -20 -20 -20 -20
-20 6 -20 -20 -20 -18 -20 -20 -20 -20 -20 -20 -20 -20 -20 -20 -20 -20 -13 5 -20 -20 -20 -20 -20 -20 -20 -20 -20 -20 -20 -20 -20 -20 -20 -20 -20 -20 -20 -20 -20 -20 -8 -19
-20 -20 13 -20 -4 -13 -20 -20 -20 -20 -20 -20 -20 -20 -20 -20 -20 -20 -20 -20 -20 -13 -17 -20 -20 -20 -20 -20 -20 -20 -20 -20 -20 -20 -20 -20 -20 -20 -20 -20 -20 -20 9 -9
-20 -20 1 -13 -18 -20 -20 -20 -7 1 -20 -20 -20 -20 -20 -20 -20 -20 -20 -14 2 12 -17 -20 -20 -20 -20 -20 -20 -20 -20 -20 -20 -20 -20 -20 -20 -20 -20 -20 -20 -20 -20 -15
-20 -20 -20 18 7 -13 -20 -20 -20 -20 -20 -20 -20 -20 -20 -20 -20 -20 -20 -20 -20 2 -18 -20 -20 -20 -20 -18 -20 -20 -20 -20 -20 -20 -20 -20 -20 -20 -20 -20 -20 -20 -20 -10
-1 1 8 -19 -11 -20 -20 -20 -20 -16 -20 -20 -20 -20 -20 -20 -20 -20 -20 -20 -20 -20 -20 -20 -20 -20 -20 -20 -20 -20 -20 -20 -13 -15 -20 -20 -20 -20 -20 11 -15 -8 7 4
-20 -18 -10 -2 5 -1 -20 -20 -5 -20 -20 -20 -20 -20 -20 -20 -20 -20 -20 -20 -20 -20 -20 -20 -20 -4 -20 -20 -20 -20 -20 -20 -15 -3 -20 -20 -20 -1 -15 7 13 -13 -20 -20
2 -4 8 -18 -20 -20 -20 -20 -20 -20 -20 -20 -20 -20 -20 -20 -20 -20 -20 -20 -20 -20 -20 -20 -20 -9 2 -11 2 -20 -20 -20 7 -18 -20 -20 -19 -19 -2 -8 -16 -20 -14 -8
-20 -20 -20 -20 -20 -20 -20 -20 -20 -20 -20 -20 -20 -20 -20 -20 -20 -20 -17 -20 -20 -20 -20 -20 -20 -20 -15 6 -16 -20 -20 -20 -20 3 -14 -17 -20 -9 -7 -19 -10 1 6 0
-20 -20 -20 -20 -20 -20 -20 -20 -20 -20 -20 -20 -20 -20 -20 -20 -20 -20 -20 4 -19 -20 -20 -20 -20 -20 -20 -20 -20 -20 -20 -20 7 25 3 -20 -20 -11 -20 -18 -8 -6 6 17
-20 -20 -20 -20 -20 -20 -20 -20 -20 -20 -20 -20 -20 -20 -20 -1 13 -11 -20 -16 7 -20 -20 -20 -20 11 17 16 -18 -20 -20 -20 -20 -19 -20 -16 -5 -20 -16 -12 -2 8 4 14
Wind_Speed
6 7 14 20 15 5 7 6 7 4 4 2 10 8 15 7 7 10 11 12 14 13 9 12 11 10 8 8 8 9 10 10 10 8 8 6 5 6 7 3 7 9 8 5
5 14 16 10 10 13 7 7 10 12 4 8 9 13 15 9 8 8 9 13 14 13 12 13 13 11 11 10 10 10 11 11 11 8 10 4 5 5 7 6 5 6 8 8
17 6 12 13 10 14 15 18 14 13 6 4 7 9 6 3 4 5 8 9 13 17 17 15 14 13 12 13 13 13 12 12 11 10 8 7 7 6 6 10 5 6 7 9
13 13 9 11 15 14 14 10 13 13 6 7 3 9 5 8 13 7 9 11 12 15 16 16 18 16 15 14 13 14 14 12 12 11 10 14 7 9 8 12 8 8 12 11
9 9 20 7 13 14 12 8 12 11 9 6 9 7 2 3 9 14 9 9 14 18 19 20 21 19 17 15 14 14 14 14 13 15 15 11 10 8 9 10 13 11 11 13
7 2 9 15 6 18 5 4 2 2 3 7 9 7 6 7 12 7 4 6 9 16 19 18 18 17 17 15 15 15 16 16 15 15 16 18 14 13 12 14 14 12 10 10
9 7 3 4 12 6 6 4 3 3 5 7 2 8 11 9 13 10 11 12 6 14 18 19 20 19 19 19 18 15 18 17 17 18 17 16 15 14 16 15 12 13 10 7
13 8 15 9 7 8 13 13 5 7 6 2 4 6 5 7 10 10 8 12 7 12 16 20 23 21 20 21 21 18 19 18 18 18 19 16 16 10 10 11 10 8 10 10
8 9 5 7 7 11 6 11 11 1 1 2 4 4 10 8 9 6 8 6 6 9 15 19 20 20 20 20 22 22 21 19 19 19 17 17 15 15 13 13 11 9 10 9
2 2 5 9 5 6 8 10 6 3 6 9 5 4 7 4 8 5 7 5 7 3 10 14 18 21 18 18 18 19 20 22 21 20 18 16 17 16 14 13 15 14 12 12
1 1 1 5 5 11 7 7 2 5 4 6 5 4 7 13 9 6 7 7 5 2 9 12 13 14 17 17 18 18 19 20 20 20 19 18 17 17 15 15 15 16 14 14
5 2 3 5 2 3 2 7 10 7 5 2 2 6 4 10 8 7 8 8 6 4 5 11 13 15 17 18 19 21 19 19 19 17 18 18 16 17 19 20 21 17 17 15
6 2 2 2 2 5 3 2 4 3 2 15 9 4 4 5 8 10 9 9 6 6 2 8 12 15 16 17 18 19 19 19 17 18 17 17 18 17 18 17 15 16 15 15
1 3 4 0 2 3 5 11 10 6 5 7 11 9 9 11 8 11 9 11 10 7 4 6 10 13 15 16 18 19 19 18 18 18 18 18 18 19 18 16 15 15 16 16
2 5 5 6 11 7 8 7 10 10 10 11 5 13 9 13 13 13 10 10 9 9 8 9 10 12 14 15 17 17 17 18 18 19 19 21 19 17 17 17 17 17 17 16
7 2 5 5 10 11 8 10 16 15 10 13 12 14 11 15 10 7 13 13 13 11 12 11 12 11 14 15 16 15 17 18 18 18 20 17 17 17 18 16 16 17 17 17
5 3 2 3 5 7 7 9 8 2 5 5 6 9 10 13 12 10 13 11 12 12 11 11 12 12 13 15 14 18 18 16 18 18 17 17 16 17 17 17 17 17 16 14
5 3 3 1 2 8 3 4 5 6 9 9 7 8 12 16 16 16 9 9 9 11 13 11 11 10 10 12 15 13 14 16 17 17 17 16 16 16 16 16 16 14 12 13
14 5 3 3 6 8 9 7 4 6 7 8 5 10 13 15 11 12 7 7 13 10 8 10 10 11 8 11 12 14 14 15 16 16 15 15 14 13 10 12 9 5 6 5
13 10 3 3 4 6 3 2 2 1 7 5 4 7 10 14 8 7 14 10 11 11 10 11 10 9 10 8 11 14 15 16 16 14 13 12 12 10 9 8 8 4 5 5
6 3 9 4 5 7 9 7 3 2 5 6 3 7 3 3 5 8 10 10 10 10 7 8 7 6 6 7 10 12 11 11 7 9 11 10 9 9 8 7 5 7 9 9
8 7 5 6 4 9 1 2 1 6 4 7 11 9 6 7 10 6 6 9 10 11 10 7 4 5 2 6 9 10 9 8 11 11 9 9 8 6 7 10 8 9 10 11
4 7 5 8 7 2 3 4 8 6 12 13 16 21 16 13 12 9 6 6 7 9 6 6 4 4 1 3 9 11 8 10 10 10 11 11 11 9 8 10 9 8 8 8
3 4 4 0 3 7 5 3 11 13 14 17 17 19 17 16 14 13 8 7 8 7 8 6 4 4 5 5 6 9 10 11 13 10 8 10 11 11 9 7 5 7 7 7
2 3 4 5 7 11 4 11 15 17 14 17 20 15 13 12 12 8 8 6 7 6 8 5 7 8 8 7 6 6 10 9 14 10 9 9 9 10 10 9 6 6 5 4
3 3 3 5 2 3 9 13 13 14 14 15 15 16 14 14 12 12 10 11 10 10 11 8 9 12 8 11 10 8 6 10 13 10 7 7 8 7 8 10 12 21 18 23
Wind_Direction
191 187 202 204 199 186 201 227 237 237 210 252 263 268 282 283 225 238 229 201 195 212 213 189 185 182 183 181 175 163 153 150 143 149 146 139 135 134 139 127 134 144 140 170
154 218 219 171 192 215 214 224 241 288 272 226 277 291 293 269 249 241 233 218 196 188 195 186 180 183 188 184 185 169 167 164 160 158 167 150 139 140 157 154 141 141 143 170
209 196 189 184 191 209 229 232 243 255 333 249 274 273 263 294 261 246 232 224 207 190 188 189 182 186 190 192 188 181 171 172 167 148 125 111 108 120 145 168 158 161 180 156
221 221 179 200 202 198 233 215 236 255 274 274 332 290 274 274 273 245 250 210 199 197 192 186 185 188 194 198 186 181 172 175 172 166 144 151 153 154 165 169 169 174 183 183
207 201 211 193 214 182 235 172 207 237 246 282 241 261 253 285 263 265 259 226 197 192 192 187 190 187 191 193 191 184 177 177 172 180 178 164 161 159 155 158 175 189 184 187
204 190 191 214 184 182 203 128 107 95 200 243 232 223 272 229 238 255 256 247 197 189 195 191 188 180 187 193 194 184 182 181 178 180 186 188 180 173 167 173 181 187 187 186
211 212 193 156 190 190 207 142 242 227 212 242 221 197 262 256 250 253 270 285 236 182 187 184 185 184 183 188 191 191 189 187 185 185 188 190 185 183 179 180 182 181 190 195
199 205 190 183 181 185 199 196 191 222 219 228 130 219 238 264 279 263 268 274 269 185 187 192 188 187 185 186 189 189 191 192 191 188 190 193 197 193 193 189 184 189 197 198
179 228 187 206 183 160 175 198 214 229 90 308 220 251 279 285 288 292 281 289 280 210 194 195 190 189 190 188 189 189 187 193 193 193 192 196 197 202 204 207 206 206 206 200
197 204 178 192 166 196 190 158 161 206 230 242 206 232 226 280 288 311 338 335 314 182 188 192 196 190 191 195 190 192 192 191 192 193 196 200 201 203 206 208 214 213 216 218
170 90 227 143 183 185 184 212 169 192 199 251 262 230 217 236 251 253 295 314 306 279 190 192 201 201 189 188 191 193 198 195 195 196 196 199 200 202 203 209 214 216 217 216
360 129 237 247 227 111 169 218 223 226 206 244 285 238 249 233 240 236 277 300 311 272 191 188 189 188 188 190 192 194 195 201 201 197 198 205 206 202 203 208 212 210 216 215
345 25 152 346 356 27 69 289 227 195 217 247 251 253 328 272 260 254 269 283 288 293 205 178 187 192 193 194 195 196 196 200 201 202 203 206 208 213 220 224 226 220 218 219
232 60 29 186 55 348 307 319 309 278 253 257 244 263 279 289 283 274 261 255 274 265 245 203 199 203 198 197 195 197 197 196 195 198 205 207 208 212 214 218 216 213 214 215
296 208 170 265 292 280 266 282 301 279 258 249 252 256 246 248 248 244 264 277 278 272 234 225 215 213 209 201 198 197 198 196 195 195 202 209 208 209 210 210 209 207 211 213
354 281 185 226 225 247 266 280 288 265 260 265 263 265 247 255 264 262 265 268 260 250 254 252 216 217 208 201 200 197 192 193 193 201 208 205 206 205 203 205 205 205 208 211
307 329 159 226 227 242 269 243 221 232 227 234 294 305 287 280 270 251 256 260 259 260 247 241 247 210 211 206 198 197 193 182 193 203 204 206 203 206 206 202 203 206 208 206
251 334 308 209 285 234 259 250 214 238 262 243 259 311 303 282 271 277 254 250 249 250 264 254 240 247 226 210 198 197 190 183 191 201 204 203 203 208 206 205 205 202 205 205
204 197 254 226 217 306 292 263 217 205 291 20 356 358 345 321 276 272 257 273 263 273 265 271 273 254 246 209 195 184 191 187 190 200 199 198 198 205 187 193 180 146 154 158
180 190 194 200 204 236 251 123 19 54 261 7 342 312 325 360 34 333 330 323 310 304 297 288 278 264 242 214 177 184 191 195 196 192 193 180 166 145 148 142 152 141 139 126
170 175 214 230 261 276 258 292 335 190 322 303 245 275 278 336 311 296 329 341 321 300 310 312 308 287 263 182 175 182 179 189 177 132 125 126 134 144 144 134 126 126 117 107
175 194 186 209 240 267 113 135 346 335 280 270 306 298 285 283 270 283 340 352 343 349 348 348 349 358 298 163 162 152 148 114 120 124 124 122 120 117 124 124 117 117 119 116
193 202 190 198 205 312 16 17 302 283 289 306 307 302 298 297 290 294 281 328 342 0 6 12 26 79 53 149 136 124 126 125 116 122 119 112 104 101 108 119 119 113 121 124
243 179 226 16 249 263 288 286 16 337 318 312 305 289 291 291 298 309 303 319 340 30 21 25 30 67 66 40 76 114 119 120 110 102 103 104 107 98 91 90 97 116 127 126
221 154 231 262 290 326 298 12 359 339 337 342 335 318 313 322 315 331 314 9 2 24 51 38 58 60 45 41 72 108 120 118 103 105 108 105 94 98 96 74 77 91 62 99
197 227 238 286 31 311 306 327 349 341 341 349 354 356 11 22 2 353 32 20 19 357 65 43 68 69 33 60 34 32 66 105 114 115 104 101 104 106 101 101 85 69 85 88